RH
66 63 64 63 59 66 61 63 66 65 67 62 58 66 67 68 67 62 62 66 65 65 64 62 60 60 67 78 68 51 54 61 64 75 61 80 87 76 84 78 78 76 69 64 76 77 77
66 65 65 64 63 60 66 66 67 64 66 68 65 57 70 69 70 66 66 61 65 65 64 62 63 60 74 74 47 52 49 61 55 78 60 73 82 67 75 79 79 71 60 71 77 83 68
68 66 66 65 64 62 60 70 67 67 67 68 71 62 63 71 70 70 68 68 60 65 64 62 60 65 78 63 54 57 52 61 61 60 65 61 74 71 74 87 74 70 81 86 80 86 87
70 67 66 66 65 64 64 65 70 67 65 68 68 71 64 66 72 70 72 69 65 60 61 62 66 76 73 50 56 54 56 57 66 59 63 69 75 72 78 71 80 78 80 90 83 78 89
71 69 68 67 66 66 64 61 65 62 68 68 70 70 66 66 73 70 76 71 67 61 61 64 79 82 67 47 58 54 63 63 59 68 73 59 88 78 78 88 89 85 89 87 93 68 86
72 70 69 68 67 66 64 63 65 62 71 70 71 73 71 64 73 72 76 70 65 67 74 71 75 72 64 66 60 58 71 72 75 76 76 76 88 94 92 91 85 94 87 84 77 78 79
72 70 69 69 68 67 64 63 60 64 70 72 73 75 71 67 72 70 83 80 81 85 84 82 81 77 67 67 65 71 68 71 70 84 95 80 98 95 84 74 67 76 74 70 75 73 75
73 71 70 70 68 67 66 64 63 66 70 72 72 74 67 65 74 70 80 82 74 71 79 72 74 70 72 80 76 78 64 80 91 93 80 91 100 80 77 71 71 70 78 74 60 70 65
74 70 69 70 69 68 67 64 63 69 72 72 71 70 68 75 68 78 80 81 78 77 87 83 82 85 83 79 77 81 73 80 97 100 89 84 92 81 77 80 76 75 74 75 68 73 58
74 70 69 70 70 69 68 66 64 68 70 73 68 68 71 67 84 87 85 76 80 75 95 89 77 81 80 84 81 72 68 73 97 98 95 84 88 89 82 82 71 81 65 64 69 76 86
75 69 68 71 70 69 69 67 66 68 71 71 68 71 72 63 88 84 70 83 79 78 95 97 85 78 83 83 79 76 72 74 93 93 94 98 94 93 85 79 66 74 61 62 65 67 64
76 69 68 70 70 69 68 69 66 66 67 68 70 71 75 91 96 80 74 73 76 88 98 100 92 88 79 83 77 79 75 81 75 87 87 93 82 90 76 80 66 62 66 68 74 70 92
75 70 68 69 69 68 68 68 67 68 67 72 74 78 82 86 86 75 76 82 93 92 76 99 100 95 86 87 78 83 87 95 90 98 100 96 95 91 80 83 75 65 75 95 95 97 86
75 70 69 68 67 68 68 68 69 70 71 74 79 82 83 82 80 74 79 87 88 83 95 78 93 97 100 95 96 77 90 98 87 96 99 97 100 95 84 81 80 71 68 87 88 91 82
74 71 70 66 67 68 70 70 71 72 73 75 77 96 97 89 76 78 77 96 85 86 84 88 82 98 99 84 84 85 89 91 90 92 96 98 100 88 89 87 79 83 91 64 81 79 81
74 72 69 66 64 70 71 71 71 72 72 76 96 94 95 86 77 81 94 89 90 76 82 83 88 83 93 88 92 97 92 79 96 89 83 84 99 86 86 81 84 77 66 83 89 87 84
74 72 69 65 67 70 72 72 72 72 71 78 95 95 92 84 82 85 97 96 87 76 81 90 87 76 91 95 91 91 91 85 82 87 66 71 82 97 77 88 90 89 88 81 72 70 70
74 71 69 66 69 71 72 73 73 70 70 82 95 97 94 87 98 98 94 86 75 84 85 83 90 84 76 78 86 86 81 77 77 74 73 70 75 97 97 78 82 86 85 73 89 86 81
74 71 67 70 70 70 73 74 73 70 69 95 95 97 89 91 98 96 88 87 83 83 83 82 75 68 67 74 84 84 80 70 76 76 75 72 87 96 92 76 81 93 90 77 77 82 91
74 71 68 71 71 69 72 74 73 69 73 90 90 95 90 96 93 95 92 91 88 82 77 70 71 65 67 74 75 82 83 74 65 68 68 63 80 77 85 76 86 95 93 86 88 98 83
74 70 69 72 71 69 73 75 72 67 70 77 90 93 93 96 92 92 92 90 89 89 78 75 73 81 77 80 82 87 84 76 62 69 68 67 88 83 73 72 90 91 88 90 92 80 85
74 69 71 73 70 70 73 74 72 67 66 89 79 86 93 92 90 93 82 90 94 89 89 85 84 83 76 74 80 82 80 80 74 71 76 72 89 86 86 82 83 85 84 89 87 82 74
74 70 74 74 71 72 71 74 72 68 64 92 98 94 88 86 86 93 88 84 80 86 86 82 90 83 81 82 83 78 74 72 71 70 78 74 83 86 86 79 73 74 69 78 85 81 76
72 72 76 74 73 73 72 74 73 71 76 91 97 93 78 74 83 76 79 74 73 79 86 79 86 82 83 86 72 74 70 72 70 82 72 79 77 79 89 75 87 56 58 61 68 66 75
72 75 76 73 73 74 75 74 74 70 72 95 98 89 82 89 78 78 78 88 83 85 93 95 88 89 90 81 78 77 81 77 80 84 83 70 81 90 91 92 68 61 69 70 70 62 64
74 76 76 74 75 74 76 74 75 75 74 95 97 91 87 69 79 78 84 88 91 94 90 88 81 84 86 85 76 68 89 84 85 87 82 77 76 79 93 95 79 47 74 61 63 77 59
76 77 77 75 74 75 74 73 74 77 76 90 96 88 90 88 86 82 80 73 82 89 93 90 83 91 89 94 90 85 74 81 89 92 92 89 84 90 80 87 83 62 58 65 82 65 70
78 80 78 76 74 75 74 74 75 77 76 88 96 94 91 94 91 83 75 82 88 89 83 85 89 96 97 98 92 92 92 85 87 82 87 88 93 94 91 96 92 57 76 77 61 76 79
80 82 80 76 75 75 76 76 74 76 79 79 95 93 91 94 85 80 82 77 69 70 84 88 98 96 99 99 94 95 96 93 86 88 86 86 73 82 78 78 59 57 68 67 73 78 77
Wind_Speed
8 8 9 9 11 13 13 15 15 14 15 14 16 15 16 16 13 12 12 12 10 9 8 7 4 3 2 2 4 5 12 12 7 4 4 6 7 5 4 6 5 3 5 6 10 8 7
6 8 9 8 10 12 12 15 14 16 16 16 14 15 14 15 14 11 9 9 8 8 7 6 5 3 2 1 2 4 7 2 5 4 2 5 2 5 3 5 5 8 2 7 9 5 3
7 7 8 9 10 11 11 13 15 16 17 17 14 14 12 15 13 12 10 7 5 5 5 5 4 2 1 5 1 5 3 6 5 2 1 6 3 3 1 4 3 7 8 5 5 5 4
8 8 8 8 10 12 12 12 14 15 17 16 16 13 15 14 14 13 11 10 3 2 2 3 4 2 3 4 3 3 2 5 1 1 6 4 2 1 1 1 3 4 5 7 5 13 4
9 9 8 8 9 11 12 14 14 16 17 16 15 13 13 14 13 11 12 10 4 2 1 2 3 3 1 5 3 3 4 2 2 3 7 9 4 3 1 6 4 3 6 5 5 13 8
9 9 8 8 8 10 12 14 14 16 17 16 15 14 12 13 13 10 10 4 3 3 2 1 1 3 3 2 4 2 3 5 6 5 7 6 3 2 2 5 15 8 7 5 8 10 9
10 9 8 8 8 10 11 14 15 17 17 17 16 14 13 14 12 9 3 3 4 2 2 1 0 0 2 6 3 1 2 2 5 3 6 9 4 12 10 4 3 8 5 9 6 9 6
10 9 8 8 8 10 11 14 15 15 17 17 16 15 14 14 8 3 4 2 2 1 2 1 2 3 1 0 1 3 4 3 3 5 10 6 2 10 7 5 6 11 8 4 2 7 8
11 8 8 8 8 9 11 13 15 16 16 16 16 15 15 13 2 4 3 2 2 1 2 1 1 1 1 2 3 6 7 3 3 3 13 7 2 12 7 5 8 2 9 5 6 5 3
10 8 7 8 7 9 10 12 15 15 16 16 16 15 13 3 2 1 1 3 2 2 4 0 1 1 2 0 2 3 4 3 1 6 4 3 10 17 10 6 7 4 5 7 10 9 4
11 7 5 7 7 8 11 13 15 16 16 16 17 15 8 2 4 2 2 5 4 3 4 1 2 1 1 1 1 1 3 1 2 7 2 2 11 12 8 8 5 4 6 6 4 4 3
11 7 5 5 7 8 10 13 15 16 16 18 18 13 4 3 2 1 5 4 3 7 2 2 1 3 3 4 2 3 2 1 2 6 4 3 6 2 2 3 2 9 7 8 4 3 3
11 8 5 4 6 9 10 13 15 16 17 18 18 6 7 4 3 3 3 1 4 6 2 1 3 2 3 1 2 1 1 2 3 5 1 7 4 1 1 7 1 5 6 3 2 2 4
13 9 5 3 5 8 10 12 15 16 16 17 9 7 5 1 1 4 1 5 8 1 1 1 4 4 2 6 2 3 2 3 5 4 3 3 4 6 1 3 6 3 4 5 6 4 3
13 10 6 2 4 7 10 12 14 15 15 14 3 2 2 2 2 2 3 5 7 5 3 2 1 3 2 5 3 3 2 3 3 3 3 4 2 3 3 2 2 3 3 3 7 2 2
14 12 8 3 2 7 9 12 14 15 15 6 2 2 1 1 2 3 4 2 1 5 3 0 1 1 2 3 2 0 1 4 3 7 8 2 5 4 2 2 6 3 6 3 3 4 4
15 12 9 4 1 6 9 11 13 15 14 6 3 4 2 2 1 3 2 4 4 5 3 3 0 1 4 4 4 5 4 1 5 8 4 2 2 2 3 1 6 2 2 4 4 2 3
16 13 10 6 2 5 8 10 13 15 8 6 3 3 2 1 1 0 2 4 4 2 2 2 2 3 1 3 2 2 5 4 6 6 6 4 4 4 2 1 2 1 3 3 4 4 1
17 14 11 7 4 4 7 10 13 15 3 4 3 2 2 0 1 2 3 2 2 2 2 3 1 2 2 3 4 2 3 3 3 2 6 6 1 5 2 0 2 3 4 4 4 3 7
19 16 12 8 4 4 7 10 13 13 4 5 3 2 3 2 1 1 1 2 0 0 1 1 2 2 2 4 5 4 2 2 4 1 4 5 4 6 8 6 5 6 6 7 5 5 3
20 17 12 8 4 3 6 9 13 9 5 5 4 1 1 1 2 2 0 2 2 4 4 4 2 4 1 2 3 2 2 3 3 3 3 3 3 3 3 3 4 5 6 12 15 12 13
21 18 13 10 6 3 6 9 12 7 7 6 4 4 1 3 1 2 4 3 4 4 4 3 4 4 3 5 2 3 3 1 3 2 3 2 2 2 2 3 4 3 7 9 15 16 17
22 19 15 11 7 5 5 8 11 10 5 4 1 2 3 3 2 2 2 2 4 4 1 4 2 2 5 3 1 3 2 2 2 6 3 3 5 2 3 2 1 6 11 14 7 7 13
23 20 17 13 10 8 5 6 8 12 8 4 2 4 3 1 3 2 1 2 3 4 3 5 4 2 3 6 3 1 6 5 5 4 3 5 4 2 2 2 1 5 2 4 13 11 14
25 22 18 15 12 9 8 6 8 10 10 5 3 4 4 4 2 2 2 2 3 4 2 2 3 1 4 2 3 4 5 3 3 4 2 2 5 3 2 2 7 1 1 5 6 4 7
27 24 20 16 14 11 8 5 7 8 9 5 2 2 4 7 1 3 2 1 0 2 5 2 3 4 1 2 1 3 2 2 2 3 4 4 5 5 2 1 5 5 2 3 3 4 4
27 26 22 17 14 12 9 6 5 6 7 4 2 1 4 5 3 4 3 3 1 1 1 2 6 6 2 1 2 4 3 3 3 5 3 2 1 4 4 3 8 6 5 4 3 5 2
26 24 22 19 15 12 9 8 6 5 6 4 1 1 4 4 2 5 4 4 1 1 2 3 1 1 2 2 3 3 4 5 2 4 6 7 6 4 3 4 8 5 3 5 6 2 3
27 25 23 20 16 14 11 10 6 4 7 5 2 2 1 4 4 2 2 2 3 4 4 2 1 1 2 2 0 1 1 2 4 3 1 3 7 6 8 7 5 5 5 3 4 4 3
Wind_Direction
320 324 333 334 345 339 343 345 345 344 337 343 345 353 349 344 357 357 356 2 15 32 37 43 59 113 34 43 260 285 346 355 156 172 174 152 180 148 172 185 138 174 159 173 104 96 83
304 314 322 333 333 339 343 338 345 341 337 338 350 348 344 337 342 344 353 354 13 25 44 52 77 75 66 21 261 316 344 34 73 126 208 159 184 153 165 189 171 170 124 167 140 102 90
289 301 315 327 327 333 340 337 343 344 342 339 349 346 352 338 340 338 335 350 346 14 32 58 84 70 40 238 334 306 337 131 347 116 271 193 242 144 312 140 200 138 134 79 184 133 25
278 290 304 316 323 326 329 345 340 336 335 339 343 346 344 337 331 330 330 320 322 327 16 52 66 87 236 266 275 350 20 129 193 250 201 208 152 335 191 110 85 118 100 152 165 160 160
265 278 295 309 321 321 325 331 333 335 335 339 339 341 343 334 329 326 325 319 273 235 247 54 59 91 308 304 25 316 33 97 116 266 204 156 146 189 203 134 127 226 166 136 146 179 149
255 270 286 300 314 318 325 326 332 335 333 337 339 337 338 332 324 325 330 22 103 52 346 128 124 87 339 317 305 5 34 51 68 317 169 144 91 195 158 179 188 152 134 108 167 180 165
243 257 278 294 310 316 324 326 330 333 331 334 337 335 334 328 318 312 15 31 24 344 40 206 134 298 322 315 270 157 82 48 39 352 162 176 131 203 170 124 141 113 121 166 132 174 161
236 250 273 292 311 318 325 328 329 330 329 331 333 334 328 322 316 332 89 137 194 181 352 257 259 264 74 312 344 114 20 78 66 179 151 152 205 193 144 106 125 133 119 136 91 165 179
226 242 266 288 310 321 327 329 327 326 329 330 332 331 330 320 344 71 133 224 114 36 101 46 335 235 72 21 308 157 179 112 79 187 157 185 124 166 178 133 118 84 155 163 146 137 206
219 236 264 290 310 325 328 330 324 326 331 329 331 330 327 350 90 136 190 173 114 82 68 225 147 297 125 77 303 101 126 163 174 109 83 180 130 165 159 162 139 143 180 151 139 133 199
207 224 255 288 309 326 329 326 325 327 328 329 330 326 323 201 157 164 186 144 115 65 49 96 101 323 240 105 219 355 182 128 86 103 94 109 135 178 140 171 162 165 139 134 116 109 163
198 205 237 282 307 324 326 326 328 328 332 332 328 322 133 75 25 295 122 137 56 48 326 108 141 159 170 27 34 331 358 70 69 66 41 8 102 56 177 89 18 144 95 60 55 61 271
192 191 212 268 309 320 327 329 329 332 336 337 331 323 146 142 172 139 133 55 47 79 286 117 123 246 139 132 109 298 107 158 129 125 161 109 97 0 302 95 20 99 89 90 84 204 220
183 181 191 249 308 319 329 332 332 335 340 338 353 96 126 141 36 120 56 38 66 267 112 315 129 139 172 167 183 180 179 138 79 65 104 122 147 179 333 202 143 119 140 151 174 197 221
179 173 178 208 306 325 332 333 336 334 341 349 82 18 59 336 119 58 72 45 188 201 219 113 177 227 145 165 148 203 244 89 135 175 131 139 104 138 79 119 48 187 77 151 107 29 25
177 170 167 178 318 330 337 337 337 333 342 10 111 93 37 81 121 69 78 281 164 187 186 204 205 228 102 124 86 44 241 133 150 215 235 167 105 25 132 133 33 93 153 86 11 131 237
176 170 163 160 3 338 346 341 336 337 343 120 70 84 261 108 118 77 152 224 242 207 194 183 123 14 138 159 136 171 204 312 158 173 148 126 86 57 151 120 163 116 105 50 113 129 175
176 171 163 151 85 346 354 343 339 337 1 78 119 73 301 112 172 189 233 202 209 180 166 237 228 179 135 157 118 123 174 253 151 156 130 187 87 103 94 348 65 319 184 146 137 222 76
175 169 163 151 96 357 358 345 340 336 18 126 107 130 342 179 124 277 288 259 217 188 209 176 268 352 69 127 122 143 128 334 168 144 158 173 126 117 47 169 27 203 186 128 108 87 197
173 166 164 148 106 20 0 351 342 340 130 91 99 89 349 60 317 192 349 338 8 164 2 345 331 45 43 22 15 126 108 70 146 193 125 104 139 155 180 198 136 189 187 173 163 198 169
167 164 162 146 118 45 20 1 351 353 134 93 31 168 200 202 334 13 331 330 349 17 357 28 79 55 96 61 19 64 113 120 62 105 49 83 121 120 202 175 136 181 200 199 209 217 221
165 161 159 147 125 87 36 10 358 11 115 82 126 133 21 106 314 353 345 10 37 344 2 354 64 353 19 100 25 256 143 194 175 114 117 19 161 131 310 159 169 237 230 226 224 234 247
164 161 159 148 131 105 58 27 9 30 101 103 188 28 111 341 52 112 352 1 46 334 93 77 318 32 51 353 266 255 289 25 154 146 120 93 129 88 275 357 31 292 224 205 214 219 226
163 160 156 150 138 119 92 56 40 47 75 115 159 107 98 76 73 75 48 347 5 327 294 317 17 49 330 322 283 157 68 83 67 44 116 127 104 84 201 18 302 242 151 194 218 245 224
160 158 157 157 145 134 116 85 66 71 77 88 129 119 125 103 98 69 10 1 306 301 347 299 17 172 295 22 42 21 353 29 21 39 70 95 119 105 152 216 289 317 160 162 172 284 216
161 157 161 158 148 142 137 123 84 89 106 87 95 124 103 124 266 125 129 353 68 338 347 317 322 313 83 82 108 229 253 221 294 338 47 69 93 116 133 174 249 237 233 182 150 284 196
160 158 161 158 150 149 149 139 101 92 93 112 91 138 97 104 214 149 164 167 175 295 230 320 328 351 326 147 166 165 202 183 215 184 179 104 118 191 201 250 284 244 250 146 112 234 275
159 157 160 156 152 154 149 143 133 129 130 94 123 328 117 104 193 181 176 149 141 139 153 313 247 71 281 219 172 191 152 216 171 202 180 171 157 197 133 216 264 177 97 181 216 251 245
157 158 158 155 155 157 149 138 139 136 144 105 99 330 77 85 152 167 237 235 191 189 139 356 62 19 16 292 22 48 207 147 179 241 73 226 185 182 181 211 234 214 228 232 184 220 255